Terminal Aerodrome Forecast
Issued by NWS Charleston, WV

Current Version | Previous Version | Graphics & Text | Print | Product List | Glossary On
Versions: 1 2 3 4 5 6 7 8 9 10 11 12 13 14 15 16 17 18 19 20 21 22 23 24 25
062
FTUS41 KRLX 020530
TAFHTS
TAF
KHTS 020530Z 0206/0306 VRB03KT P6SM BKN040
     FM021100 00000KT P6SM BKN030
     FM021600 26006G14KT P6SM BKN025
     FM022100 28006KT P6SM BKN035
     FM030200 28004KT P6SM SCT045=

USA.gov is the U.S. government's official web portal to all federal, state and local government web resources and services.